Location: Gleizolles
(44.4833°N, 6.7667°E)
Time: 12:53:48
(UTC+00:00)

Envisat - Pass Details

Date: 15 December 2021
Orbit: 764 x 766 km, 98.2° (Epoch: 28 January)

Event Time Altitude Azimuth Distance (km) Brightness Sun altitude
Rises 16:38:42 0° 200° (SSW) 3,219 7.0 -7.8°
Reaches altitude 10° 16:41:25 10° 214° (SSW) 2,298 6.5 -8.3°
Maximum altitude 16:45:27 24° 267° (W) 1,554 5.6 -8.9°
Drops below altitude 10° 16:49:33 10° 320° (NW) 2,312 5.7 -9.6°
Sets 16:52:18 0° 335° (NNW) 3,243 6.3 -10.1°
